Content
SEND FEEDBACK

Daily
Averages
Monthly
Summary
France

LE HAVRE, FRANCE


Home > Europe > France
Elevation: 338 feet     Latitude: 49 31N     Longitude: 000 04E

WEATHER
 
SELECT A DAY
Number of Records: 185,798;   Date Range: 3/4/97 - 11/22/14
 
SHARE

PRINT THIS DATA

[ ← Previous Day ]
WEATHER ALMANAC - FEBRUARY 21, 2013
[ Next Day → ]
[ °C ]   °F
Weather ElementAverageHighLow
Temperature31.5 °F35.6 °F (2:00 pm)28.4 °F (5:00 am)
Dewpoint21.9 °F24.8 °F (12:30 am)19.4 °F (5:30 pm)
Humidity68.3 %80 % (1:30 am)56 % (2:00 pm)
Barometer30.11 in30.15 in (1:00 am)30.06 in (4:00 pm)
Wind Speed13.4 mph17.3 mph (10:30 am)
Weather ElementAverage
Visibility6 mi
Wind DirectionENE (74.7 °)

Weather ElementTotal
Precipitation---
Heating Degree Days33 (Base 65)
Averaged from 47 records on February 21, 2013
WEATHER CONDITIONS BREAKOUT
WIND DIRECTION BREAKOUT
WEATHER BY HOUR - FEBRUARY 21, 2013
[ °C ]   °F
Local TimeTemperatureDewpointHumidityBarometerVisibilityWind DirectionWind SpeedGust SpeedPrecipitationEventsConditions
12:30 AM32.0 °F24.8 °F75 %30.12 in6.2 miEast (90°)11.5 mph
1:00 AM32.0 °F24.8 °F75 %30.15 in6.2 miEast (90°)12.7 mph
1:30 AM30.2 °F24.8 °F80 %30.15 in6.2 miEast (90°)11.5 mph
2:00 AM30.2 °F24.8 °F80 %30.15 in6.2 miEast (90°)11.5 mph
2:30 AM30.2 °F24.8 °F80 %30.15 in6.2 miEast (90°)11.5 mph
3:00 AM30.2 °F23.0 °F75 %30.15 in6.2 miEast (80°)10.4 mph
3:30 AM30.2 °F23.0 °F75 %30.15 in6.2 miEast (80°)10.4 mph
4:00 AM30.2 °F23.0 °F75 %30.12 in6.2 miEast (80°)11.5 mph
4:30 AM30.2 °F23.0 °F75 %30.12 in5.6 miEast (80°)12.7 mph
5:00 AM28.4 °F23.0 °F80 %30.12 in5.6 miEast (80°)10.4 mph
5:30 AM28.4 °F23.0 °F80 %30.12 in5.0 miENE (70°)11.5 mph
6:00 AM28.4 °F23.0 °F80 %30.12 in5.0 miENE (70°)10.4 mph
6:30 AM28.4 °F23.0 °F80 %30.12 in5.0 miEast (80°)11.5 mph
7:00 AM28.4 °F23.0 °F80 %30.12 in5.0 miEast (80°)10.4 mph
7:30 AM28.4 °F23.0 °F80 %30.12 in5.0 miEast (80°)11.5 mph
8:00 AM28.4 °F23.0 °F80 %30.12 in5.0 miENE (70°)10.4 mph
8:30 AM28.4 °F23.0 °F80 %30.15 in5.0 miENE (70°)12.7 mph
9:00 AM28.4 °F23.0 °F80 %30.15 in5.6 miENE (70°)15.0 mph
9:30 AM30.2 °F23.0 °F75 %30.15 in6.2 miENE (70°)15.0 mph
10:00 AM30.2 °F23.0 °F75 %30.15 in6.2 miENE (70°)15.0 mph
10:30 AM32.0 °F23.0 °F69 %30.15 in6.2 miENE (70°)17.3 mph
11:00 AM32.0 °F23.0 °F69 %30.15 in6.2 miENE (70°)17.3 mph
11:30 AM32.0 °F21.2 °F64 %30.15 in6.2 miEast (80°)16.1 mph
12:00 PM33.8 °F21.2 °F60 %30.15 in6.2 miEast (80°)15.0 mph
12:30 PM33.8 °F21.2 °F60 %30.12 in6.2 miEast (80°)13.8 mphPartly Cloudy
1:00 PM33.8 °F23.0 °F65 %30.12 in6.2 miENE (70°)13.8 mphPartly Cloudy
1:30 PM33.8 °F21.2 °F60 %30.12 in6.2 miEast (80°)13.8 mphScattered Clouds
2:00 PM35.6 °F21.2 °F56 %30.12 in6.2 miENE (70°)13.8 mphPartly Cloudy
2:30 PM35.6 °F21.2 °F56 %30.09 in6.2 miEast (80°)12.7 mphScattered Clouds
3:00 PM35.6 °F23.0 °F60 %30.09 in6.2 miENE (60°)15.0 mphPartly Cloudy
3:30 PM35.6 °F21.2 °F56 %30.09 in6.2 miENE (70°)15.0 mphPartly Cloudy
4:00 PM35.6 °F21.2 °F56 %30.06 in6.2 miEast (80°)13.8 mphMostly Cloudy
4:30 PM35.6 °F21.2 °F56 %30.06 in6.2 miENE (70°)15.0 mphPartly Cloudy
5:00 PM33.8 °F21.2 °F60 %30.06 in6.2 miENE (60°)17.3 mphPartly Cloudy
5:30 PM33.8 °F19.4 °F56 %30.06 in6.2 miENE (70°)15.0 mphPartly Cloudy
6:00 PM32.0 °F19.4 °F60 %30.06 in6.2 miEast (80°)16.1 mphMostly Cloudy
6:30 PM32.0 °F19.4 °F60 %30.06 in6.2 miEast (80°)17.3 mphMostly Cloudy
7:00 PM32.0 °F19.4 °F60 %30.06 in6.2 miENE (70°)16.1 mphMostly Cloudy
7:30 PM32.0 °F19.4 °F60 %30.09 in6.2 miENE (70°)12.7 mphMostly Cloudy
8:00 PM32.0 °F19.4 °F60 %30.09 in6.2 miENE (70°)15.0 mphOvercast
8:30 PM30.2 °F19.4 °F64 %30.06 in6.2 miENE (70°)13.8 mphPartly Cloudy
9:00 PM32.0 °F19.4 °F60 %30.06 in6.2 miENE (70°)10.4 mphMostly Cloudy
9:30 PM32.0 °F19.4 °F60 %30.06 in6.2 miENE (70°)13.8 mphOvercast
10:00 PM32.0 °F19.4 °F60 %30.06 in6.2 miENE (70°)16.1 mphOvercast
10:30 PM30.2 °F19.4 °F64 %30.06 in6.2 miENE (70°)16.1 mphMostly Cloudy
11:00 PM30.2 °F21.2 °F69 %30.06 in6.2 miENE (60°)9.2 mph
11:30 PM30.2 °F21.2 °F69 %30.06 in6.2 miENE (60°)9.2 mphMostly Cloudy
Hourly data recorded from LFOH, located miles away from Le Havre, France







STORIES FROM OUR PARTNERS